Regional Weather Roundup
Issued by NWS

Home | Current Version | Previous Version | Text Only | Print | Product List | Glossary Off
Versions: 1 2 3 4 5 6 7 8 9 10 11 12 13 14 15 16 17 18 19 20 21 22 23 24 25 26 27 28 29 30 31 32 33 34 35 36 37 38 39 40 41 42 43 44 45 46 47 48 49 50

000
ASUS43 KMKX 160600
RWRWI

WISCONSIN REGIONAL WEATHER ROUNDUP
NATIONAL WEATHER SERVICE MILWAUKEE/SULLIVAN WI
100 AM CDT WED AUG 16 2017

NOTE: "FAIR" INDICATES FEW OR NO CLOUDS BELOW 12,000 FEET WITH NO
SIGNIFICANT WEATHER AND/OR OBSTRUCTIONS TO VISIBILITY.

WIZ001-002-006>008-014>016-023>028-160700-
NORTHWEST WISCONSIN

CITY           SKY/WX    TMP DP  RH WIND       PRES   REMARKS
SUPERIOR ARPT    N/A     60  60  97 NE7       30.01R
ASHLAND        FOG       50  49  96 SW3       30.03R VSB 1
6HR MIN TEMP:  49; 6HR MAX TEMP:  65;

HAYWARD        CLOUDY    60  55  83 CALM      30.02R
6HR MIN TEMP:  59; 6HR MAX TEMP:  73;

SIREN          PTCLDY    58  56  94 CALM      29.99R
CUMBERLAND     PTCLDY    59  55  88 NE5       30.00R
RICE LAKE      PTCLDY    58  57  97 N3        30.01R FOG
CHETEK         PTCLDY    61  60  95 CALM      29.99S
LADYSMITH      PTCLDY    60  56  86 E3        30.03S
EAU CLAIRE     NOT AVBL
MENOMONIE      PTCLDY    61  58  91 CALM      29.98R
NEW RICHMOND   CLOUDY    61  58  91 E5        29.98R
OSCEOLA        CLOUDY    62  60  96 CALM      30.00R
$$

WIZ003>005-009-010-017-018-160700-
NORTH CENTRAL WISCONSIN

CITY           SKY/WX    TMP DP  RH WIND       PRES   REMARKS
MANITOWISH WTR PTCLDY    50  50 100 E3        30.05R
ARBOR VITAE    MOCLDY    55  53  94 CALM      30.05R
WOODRUFF       MOCLDY    55  53  94 CALM      30.05R
RHINELANDER    PTCLDY    54  53  97 CALM      30.06R
6HR MIN TEMP:  53; 6HR MAX TEMP:  69;

EAGLE RIVER    PTCLDY    50  50 100 CALM      30.05S
LAND O LAKES   PTCLDY    47  47 100 CALM      30.08S
6HR MIN TEMP:  47; 6HR MAX TEMP:  68;

PHILLIPS       CLOUDY    55  55  97 CALM      30.03S
6HR MIN TEMP:  54; 6HR MAX TEMP:  70;

TOMAHAWK         N/A     50  49  97 CALM      30.05S FOG
MEDFORD        CLOUDY    56  54  94 E5        30.03R
MERRILL        PTCLDY    55  55 100 CALM      30.04S
$$

WIZ029-030-035-036-043>047-160700-
CENTRAL WISCONSIN

CITY           SKY/WX    TMP DP  RH WIND       PRES   REMARKS
WAUSAU         PTCLDY    60  58  92 E5        30.02R
6HR MIN TEMP:  60; 6HR MAX TEMP:  71;

MOSINEE        CLOUDY    59  57  94 E3        30.04R
MARSHFIELD     PTCLDY    62  58  86 SE7       30.02R
6HR MIN TEMP:  60; 6HR MAX TEMP:  71; 6HR PCP: TRACE;

STEVENS POINT  MOCLDY    60  60  98 S3        30.03S
WAUPACA        PTCLDY    64  63  94 CALM      30.02S
WAUTOMA        CLOUDY    61  59  93 CALM      30.03R
6HR MIN TEMP:  61; 6HR MAX TEMP:  72;

WISC RAPIDS    PTCLDY    62  59  90 SE7       30.03S
6HR MIN TEMP:  60; 6HR MAX TEMP:  73;

CAMP DOUGLAS   NOT AVBL
$$

WIZ011>013-019>022-031-037>040-048>050-160700-
NORTHEAST WISCONSIN

CITY           SKY/WX    TMP DP  RH WIND       PRES   REMARKS
ANTIGO         CLOUDY    57  56  95 E3        30.06R
SHAWANO        CLOUDY    62  59  91 CALM      30.04R
6HR MIN TEMP:  61; 6HR MAX TEMP:  71;

OCONTO         CLOUDY    62  59  91 CALM      30.03R
STURGEON BAY   MOCLDY    63  60  90 E5        30.05R
6HR MIN TEMP:  62; 6HR MAX TEMP:  69;

GREEN BAY      CLOUDY    60  60 100 NE3       30.03S
6HR MIN TEMP:  59; 6HR MAX TEMP:  70;

MANITOWOC      NOT AVBL
APPLETON       CLOUDY    64  57  77 E6        30.02R
CLINTONVILLE     N/A     61  59  94 NE3       30.03S
OSHKOSH        CLOUDY    63  59  87 CALM      30.02S
6HR MIN TEMP:  62; 6HR MAX TEMP:  73;

$$

WIZ032>034-041-042-053>061-160700-
SOUTHWEST WISCONSIN

CITY           SKY/WX    TMP DP  RH WIND       PRES   REMARKS
LA CROSSE      PTCLDY    68  63  84 E6        29.96S
6HR MIN TEMP:  68; 6HR MAX TEMP:  75;

SPARTA         CLOUDY    59  58  97 CALM      30.00R
VIROQUA        PTCLDY    64  62  93 SE8       30.00R
6HR MIN TEMP:  62; 6HR MAX TEMP:  69;

BOSCOBEL       PTCLDY    64  62  93 CALM      29.98S
6HR MIN TEMP:  60; 6HR MAX TEMP:  74;

PRAIRIE DU CHI PTCLDY    65  61  87 CALM      29.97R
PLATTEVILLE    CLEAR     65  65  99 SE10      29.99S
$$

WIZ056-057-062-063-064-067-068-160700-
SOUTH CENTRAL WISCONSIN

CITY           SKY/WX    TMP DP  RH WIND       PRES   REMARKS
REEDSBURG      PTCLDY    62  62 100 CALM      30.00S
BARABOO/DELLS  PTCLDY    64  59  83 SE7       30.01F
LONE ROCK      NOT AVBL
MINERAL POINT  CLOUDY    66  64  94 E8        30.00S
MADISON        CLOUDY    63  60  90 E5        30.01S
6HR MIN TEMP:  63; 6HR MAX TEMP:  72;

MIDDLETON      CLOUDY    66  62  87 SE7       30.02R
WATERTOWN      CLOUDY    60  60 100 SE3       30.01F
MONROE         CLEAR     63  59  88 E7        30.00S
JANESVILLE     CLOUDY    63  63 100 CALM      30.01R
$$

WIZ051-052-058>065-066-070>072-160700-
SOUTHEAST WISCONSIN

CITY           SKY/WX    TMP DP  RH WIND       PRES   REMARKS
MILWAUKEE      MOCLDY    66  60  81 E3        30.02R
6HR MIN TEMP:  66; 6HR MAX TEMP:  70;

WAUKESHA       PTCLDY    57  55  94 CALM      30.03S
MILWAUKEE/TIMM PTCLDY    59  55  88 CALM      30.03S
RACINE         CLOUDY    63  60  90 CALM      30.04R
6HR MIN TEMP:  62; 6HR MAX TEMP:  69;

KENOSHA        PTCLDY    59  57  93 CALM      30.02R
6HR MIN TEMP:  59; 6HR MAX TEMP:  68;

FOND DU LAC    CLOUDY    61  57  87 CALM      30.02S
6HR MIN TEMP:  61; 6HR MAX TEMP:  74;

SHEBOYGAN      PTCLDY    56  56 100 CALM      30.02S FOG
6HR MIN TEMP:  55; 6HR MAX TEMP:  69; 6HR PCP: TRACE;

WEST BEND      PTCLDY    54  54 100 CALM      30.03S
JUNEAU         MOCLDY    60  58  93 E3        30.03F
$$

LSZ147-162-160700-
LAKE SUPERIOR

STATION/POSITION TIME  TEMP    WIND        PRES    WAVE
                       AIR SEA DIR/SP/G            HT/PER
                 (UTC) (F)     (DEG/KT/KT) (MB)    (FT/S)
W MID LAKE BUOY  0450   61 60   70/  8/ 10 1016.4F   1
DEVILS ISLAND    0500   62     100/ 10/ 12 1016.5S
SAXON HARBOR     0530   54      CALM  /  5 1015.9S
$$

LMZ867-665-643>646-160700-
LAKE MICHIGAN

STATION/POSITION TIME  TEMP    WIND        PRES    WAVE
                       AIR SEA DIR/SP/G            HT/PER
                 (UTC) (F)     (DEG/KT/KT) (MB)    (FT/S)
S GREEN BAY BUOY 0530   67 72  100/ 10/ 12 1016.6R
N MID LAKE BUOY  0450   64 67   60/ 12/ 14 1017.1R   2/ 4
NORTHPORT PIER   0540   64      50/  5/  7 1017.3R
KEWAUNEE LAKESHO 0530   66      80/  6/  7 1016.0R
SHEBOYGAN LAKESH 0500   68      50/  7/  7 1016.3R
PORT WASHINGTON  0540   64     360/  2/  4 1017.3R
ATWATER BUOY     0409   69 71   50/  8/ 10 1016.4R
MILWAUKEE LAKESH 0540   69      60/  8/  9   N/A
S MID LAKE BUOY  0450   70 72   30/ 10/ 12 1015.8R   2/ 5
KENOSHA   LAKESH 0500   70      70/ 10/ 12 1015.9
$$

TC  - TEMPERATURE IN CELSIUS
VSB - VISIBILITY IN STATUTE MILES
WCI - WIND CHILL INDEX
HX  - HEAT INDEX





USA.gov is the U.S. government's official web portal to all federal, state and local government web resources and services.